TimePST,TemperatureF,Dew PointF,Humidity,Sea Level PressureIn,VisibilityMPH,Wind Direction,Wind SpeedMPH,Gust SpeedMPH,PrecipitationIn,Events,Conditions,WindDirDegrees,DateUTC
12:56 AM,46.0,45.0,96,30.21,10.0,SE,3.5,-,N/A,,Overcast,140,2013-01-08 08:56:00
1:56 AM,48.0,46.0,93,30.21,10.0,South,5.8,-,0.00,,Overcast,180,2013-01-08 09:56:00
2:56 AM,48.0,46.0,93,30.18,10.0,South,10.4,-,N/A,,Overcast,170,2013-01-08 10:56:00
3:06 AM,48.2,46.4,93,30.17,10.0,SSE,10.4,-,N/A,,Overcast,160,2013-01-08 11:06:00
3:27 AM,48.2,46.4,93,30.17,9.0,South,8.1,-,N/A,,Overcast,180,2013-01-08 11:27:00
3:41 AM,48.2,46.4,93,30.16,10.0,South,11.5,-,N/A,,Overcast,170,2013-01-08 11:41:00
3:56 AM,48.9,46.9,93,30.16,10.0,South,12.7,-,N/A,,Overcast,170,2013-01-08 11:56:00
4:04 AM,48.2,46.4,93,30.15,10.0,South,12.7,-,N/A,,Overcast,170,2013-01-08 12:04:00
4:56 AM,48.9,46.9,93,30.14,6.0,South,16.1,21.9,0.00,Rain,Light Rain,180,2013-01-08 12:56:00
5:25 AM,50.0,46.4,87,30.13,10.0,South,15.0,24.2,0.00,,Overcast,180,2013-01-08 13:25:00
5:56 AM,50.0,46.9,89,30.13,10.0,South,17.3,24.2,0.00,,Overcast,170,2013-01-08 13:56:00
6:40 AM,50.0,46.4,87,30.13,10.0,SSE,16.1,-,N/A,,Overcast,160,2013-01-08 14:40:00
6:56 AM,50.0,46.9,89,30.13,10.0,South,18.4,26.5,N/A,,Overcast,170,2013-01-08 14:56:00
7:56 AM,50.0,46.9,89,30.14,10.0,South,16.1,-,N/A,,Overcast,170,2013-01-08 15:56:00
8:34 AM,50.0,46.4,87,30.14,10.0,South,12.7,-,N/A,,Overcast,180,2013-01-08 16:34:00
8:56 AM,51.1,46.9,86,30.15,10.0,South,12.7,-,N/A,,Overcast,180,2013-01-08 16:56:00
9:25 AM,51.8,48.2,88,30.14,10.0,South,13.8,-,N/A,,Mostly Cloudy,180,2013-01-08 17:25:00
9:56 AM,52.0,48.0,86,30.14,10.0,South,10.4,19.6,N/A,,Mostly Cloudy,180,2013-01-08 17:56:00
10:56 AM,52.0,48.0,86,30.14,10.0,South,13.8,21.9,N/A,,Overcast,170,2013-01-08 18:56:00
11:22 AM,51.8,48.2,88,30.13,6.0,South,18.4,23.0,0.00,Rain,Light Rain,170,2013-01-08 19:22:00
11:56 AM,52.0,48.9,89,30.12,4.0,South,15.0,25.3,0.00,Rain,Light Rain,170,2013-01-08 19:56:00
12:56 PM,53.1,48.0,83,30.11,4.0,South,19.6,27.6,0.00,,Haze,180,2013-01-08 20:56:00
1:56 PM,53.1,48.9,86,30.09,10.0,South,16.1,24.2,0.00,,Overcast,170,2013-01-08 21:56:00
2:56 PM,53.1,48.9,86,30.07,10.0,SSE,11.5,21.9,0.00,,Overcast,150,2013-01-08 22:56:00
3:56 PM,54.0,48.9,83,30.06,10.0,Variable,6.9,19.6,N/A,,Overcast,0,2013-01-08 23:56:00
4:56 PM,54.0,48.0,80,30.04,10.0,SE,5.8,-,N/A,,Overcast,140,2013-01-09 00:56:00
5:56 PM,53.1,46.9,80,30.01,10.0,South,11.5,21.9,N/A,,Mostly Cloudy,180,2013-01-09 01:56:00
6:56 PM,53.1,46.0,77,29.99,10.0,South,12.7,24.2,N/A,,Clear,190,2013-01-09 02:56:00
7:56 PM,51.1,46.9,86,29.99,10.0,South,8.1,-,N/A,,Mostly Cloudy,170,2013-01-09 03:56:00
8:56 PM,51.1,46.0,83,29.98,10.0,SSE,5.8,-,N/A,,Mostly Cloudy,160,2013-01-09 04:56:00
9:56 PM,50.0,46.0,86,29.97,10.0,South,6.9,-,N/A,,Clear,180,2013-01-09 05:56:00
10:56 PM,50.0,46.0,86,29.95,10.0,South,9.2,-,N/A,,Clear,170,2013-01-09 06:56:00
11:56 PM,50.0,45.0,83,29.93,10.0,SSW,8.1,-,N/A,,Clear,200,2013-01-09 07:56:00